Lexington Weather

Lexington, Massachusetts, USA

49°F
12/8/2022 2:54pm 
  • Lexington Conditions: Clear
  • Temperature: 48.6°F / 9.2°CColder 1.4°F than last hour.
  • Dew Point: 35.2°FDecreased 0.2°Fsince last hour.
  • Relative Humidity: 60%Increased 3.0% since last hour.
  • Wind: Wind from NW NW 2 mph, 10-min avg: 2 mph, gust: 8 mph
  • Barometer: 30.07 in Steady
  • Visibility: 10 miles
  • Rain Today: 0.00 in
  •   

Warning: Undefined variable $rc in /homepages/6/d276339138/htdocs/weather/20190804/ssi/nwsProduct.php on line 323

Warning: Undefined variable $rc in /homepages/6/d276339138/htdocs/weather/20190804/ssi/nwsProduct.php on line 325

Warning: Undefined variable $rc in /homepages/6/d276339138/htdocs/weather/20190804/ssi/nwsProduct.php on line 323

Warning: Undefined variable $rc in /homepages/6/d276339138/htdocs/weather/20190804/ssi/nwsProduct.php on line 325

Warning: Undefined variable $rc in /homepages/6/d276339138/htdocs/weather/20190804/ssi/nwsProduct.php on line 323

Warning: Undefined variable $rc in /homepages/6/d276339138/htdocs/weather/20190804/ssi/nwsProduct.php on line 325

Warning: Undefined variable $rc in /homepages/6/d276339138/htdocs/weather/20190804/ssi/nwsProduct.php on line 323

Warning: Undefined variable $rc in /homepages/6/d276339138/htdocs/weather/20190804/ssi/nwsProduct.php on line 325

Warning: Undefined variable $rc in /homepages/6/d276339138/htdocs/weather/20190804/ssi/nwsProduct.php on line 323

Warning: Undefined variable $rc in /homepages/6/d276339138/htdocs/weather/20190804/ssi/nwsProduct.php on line 325

Warning: Undefined variable $rc in /homepages/6/d276339138/htdocs/weather/20190804/ssi/nwsProduct.php on line 323

Warning: Undefined variable $rc in /homepages/6/d276339138/htdocs/weather/20190804/ssi/nwsProduct.php on line 325

Warning: Undefined variable $rc in /homepages/6/d276339138/htdocs/weather/20190804/ssi/nwsProduct.php on line 323

Warning: Undefined variable $rc in /homepages/6/d276339138/htdocs/weather/20190804/ssi/nwsProduct.php on line 325

Regional Weather Roundup
for Boston, MA

        
000
ASUS41 KBOX 040710
RWRBOX

REGIONAL WEATHER ROUNDUP
NATIONAL WEATHER SERVICE BOSTON/NORTON MA
200 AM EST SUN DEC 04 2022

NOTE:  "FAIR" INDICATES FEW OR NO CLOUDS BELOW 12,000 FEET WITH NO 
SIGNIFICANT WEATHER AND/OR OBSTRUCTIONS TO VISIBILITY.

MAZALL-040800-
EASTERN MASSACHUSETTS
  
CITY           SKY/WX    TMP DP  RH WIND       PRES   REMARKS
BOSTON         CLEAR     41  25  53 W14       30.04R                  
BEVERLY        CLEAR     39  25  57 W9        30.01R                  
LAWRENCE       MOCLDY    40  25  55 W8        30.02R                  
BEDFORD        CLEAR     40  24  53 W10G21    30.02R                  
NORWOOD        CLEAR     42  22  44 W13G22    30.05R                  
MARSHFIELD       N/A     39  25  56 VRB6      30.03R                  
PLYMOUTH       CLEAR     40  25  55 W12G21    30.03R                  
TAUNTON          N/A    N/A N/A N/A MISG      30.05R                  
NEW BEDFORD    CLEAR     41  23  48 NW10G21   30.05R                  
$$

MAZALL-040800-
CAPE COD AND THE ISLANDS
  
CITY           SKY/WX    TMP DP  RH WIND       PRES   REMARKS
FALMOUTH       NOT AVBL                                               
HYANNIS        CLEAR     40  27  59 W12G21    30.02R                  
CHATHAM        CLEAR     44  27  51 NW9G28    30.02R                  
PROVINCETOWN   CLEAR     43  31  62 NW22G32   30.02R                  
NANTUCKET      CLEAR     46  30  53 NW16G28   30.03R                  
MARTHAS VNYRD  CLEAR     42  29  59 NW14G21   30.05R                  
$$
 
MAZALL-040800-
CENTRAL AND WESTERN MASSACHUSETTS
  
CITY           SKY/WX    TMP DP  RH WIND       PRES   REMARKS
WORCESTER      CLEAR     36  21  54 NW17G33   30.01R WCI  26          
FITCHBURG      CLEAR     38  22  52 NW15G21   30.03R WCI  29          
ORANGE         PTCLDY    37  21  52 W10G20    30.07R WCI  30          
SPRINGFIELD    MOCLDY    36  20  52 NW16G23   30.08R WCI  27          
WESTFIELD      CLOUDY    38  21  50 W9G16     30.10R WCI  31          
NORTH ADAMS    CLOUDY    36  21  54 W13G20    30.12R WCI  27          
PITTSFIELD     CLOUDY    34  20  56 NW12G24   30.08R WCI  25          
$$
 
RIZALL-040800-
RHODE ISLAND
  
CITY           SKY/WX    TMP DP  RH WIND       PRES   REMARKS
PROVIDENCE     CLEAR     40  24  53 NW16G26   30.07R WCI  31          
NEWPORT        CLEAR     40  27  59 NW13G22   30.06R                  
BLOCK ISLAND   PTCLDY    41  30  65 NW17G25   30.08R                  
SMITHFIELD     CLEAR     37  23  56 NW15G21   30.04R WCI  28          
WESTERLY       CLEAR     41  28  60 W8G21     30.08R                  
$$
 
CTZALL-040800-
CONNECTICUT
  
CITY           SKY/WX    TMP DP  RH WIND       PRES   REMARKS
BRADLEY INTL   MOCLDY    38  22  52 N5        30.11R                  
HARTFORD       CLEAR     41  23  48 NW14      30.12R                  
BRIDGEPORT     CLEAR     42  25  50 NW12      30.12R                  
DANBURY        CLEAR     41  22  46 VRB5      30.12R                  
GROTON         CLEAR     42  29  59 NW12G22   30.09R                  
NEW HAVEN      CLEAR     45  29  53 NW9       30.11R                  
CHESTER        FAIR      39  28  65 NW12      30.09R WCI  32          
MERIDEN        CLEAR     41  25  53 NW9       30.11R                  
WILLIMANTIC    CLEAR     38  23  55 NW10G18   30.10R WCI  31          
OXFORD         CLEAR     38  24  57 NW6       30.09R                  
$$

MEZ002-015-021-024-NHZ003-005-008-011-012-014-VTZ005-008-040800-
NORTHERN NEW ENGLAND
  
CITY           SKY/WX    TMP DP  RH WIND       PRES   REMARKS
PORTLAND ME    CLEAR     39  27  62 W6        29.94R                  
BANGOR ME      PTCLDY    40  31  70 W3        29.86R                  
CONCORD NH     CLEAR     38  21  50 NW14G24   30.00R WCI  30          
MANCHESTER NH  PTCLDY    41  24  51 NW14G23   30.00R                  
NASHUA NH      CLEAR     40  22  48 W8G17     30.03R                  
PORTSMOUTH NH  PTCLDY    40  22  50 W20G25    29.98R WCI  30          
JAFFREY NH     PTCLDY    37  21  52 VRB5      30.01R                  
KEENE NH       CLOUDY    38  22  52 W10G16      N/A  WCI  31          
BURLINGTON VT  CLOUDY    35  23  61 NW16G23   30.08R WCI  25          
MT. WASHINGTON SNOW      12  12 100 W74G83      N/A  VSB 0   WCI -17  
$$

NYZ052-076-040800-
EASTERN NEW YORK
  
CITY           SKY/WX    TMP DP  RH WIND       PRES   REMARKS
ALBANY         CLOUDY    38  23  55 W15G24    30.16R WCI  29          
NEW YORK CITY  CLEAR     44  23  43 NW14      30.15R                  
$$
 
ANZALL-040800-
MARINE OBSERVATIONS
  
STATION/POSITION TIME  TEMP    WIND        PRES    VSBY  WAVE
                       AIR SEA DIR/SP/G                  HT/PER
                 (UTC) (F)     (DEG/KT/KT) (MB)    (MI)  (FT/S)
BOSTON BUOY      0650      51  290/ 19/ 25 1016.9R         3/ 4
BUZZARDS BAY     0600   44     320/ 28/ 31 1017.1R
NANTUCKET SOUND  0650   45     300/ 21/ 27 1017.1R         2/ 4
MASS BAY-STELLWA 0504   45 51  280/ 17/ 21 1013.6F  1 7/8  3/ 4
ISLE OF SHOALS   0600   44     300/ 22/ 26 1013.4R
S OF BLOCK IS    0626      54                N/A          10/ 9
$$

......................KEY.........................
  SKY/WX - SKY CONDITION/PRESENT WEATHER
  TMP    - TEMPERATURE IN FAHRENHEIT
  DWPT   - DEWPOINT IN FAHRENHEIT
  RH     - RELATIVE HUMIDITY IN PERCENT
  WIND   - DIRECTION AND SPEED IN MPH
  PRES   - MEAN SEA LEVEL PRESSURE IN INCHES OF HG
  WCI    - WIND CHILL INDEX
  VSB    - VISIBILITY IN MILES
  HX     - HEAT INDEX
  TC     - TEMPERATURE IN CELSIUS
  VRB    - VARIABLE WIND DIRECTION
  N/A    - NOT AVAILABLE
  
      

Other recent Regional Weather Roundups

Thu Dec 8, 2:10pm

Thu Dec 8, 1:10pm

Thu Dec 8, 12:10pm

Thu Dec 8, 11:10am

Thu Dec 8, 10:10am

Thu Dec 8, 9:10am

Thu Dec 8, 8:10am

Thu Dec 8, 7:10am

Thu Dec 8, 6:10am

Thu Dec 8, 5:10am

Thu Dec 8, 4:10am

Thu Dec 8, 3:10am

Thu Dec 8, 2:10am

Thu Dec 8, 1:10am

Thu Dec 8, 12:10am

Wed Dec 7, 11:10pm

Wed Dec 7, 10:10pm

Wed Dec 7, 9:10pm

Wed Dec 7, 8:10pm

Wed Dec 7, 7:10pm

Wed Dec 7, 6:10pm

Wed Dec 7, 5:10pm

Wed Dec 7, 4:10pm

Wed Dec 7, 3:10pm

Wed Dec 7, 2:10pm

Wed Dec 7, 1:10pm

Wed Dec 7, 12:10pm

Wed Dec 7, 11:10am

Wed Dec 7, 10:10am

Wed Dec 7, 9:10am

Wed Dec 7, 8:10am

Wed Dec 7, 7:10am

Wed Dec 7, 6:10am

Wed Dec 7, 5:10am

Wed Dec 7, 4:10am

Wed Dec 7, 3:10am

Wed Dec 7, 2:10am

Wed Dec 7, 1:10am

Wed Dec 7, 12:10am

Tue Dec 6, 11:10pm

Tue Dec 6, 10:10pm

Tue Dec 6, 9:10pm

Tue Dec 6, 8:10pm

Tue Dec 6, 7:10pm

Tue Dec 6, 6:10pm

Tue Dec 6, 5:10pm

Tue Dec 6, 4:10pm

Tue Dec 6, 3:10pm

Tue Dec 6, 2:10pm

Tue Dec 6, 1:10pm

Tue Dec 6, 12:10pm

Tue Dec 6, 11:10am

Tue Dec 6, 10:10am

Tue Dec 6, 9:10am

Tue Dec 6, 8:10am

Tue Dec 6, 7:10am

Tue Dec 6, 6:10am

Tue Dec 6, 5:10am

Tue Dec 6, 4:10am

Tue Dec 6, 3:10am

Tue Dec 6, 2:10am

Tue Dec 6, 1:10am

Tue Dec 6, 12:10am

Mon Dec 5, 11:10pm

Mon Dec 5, 10:10pm

Mon Dec 5, 9:10pm

Mon Dec 5, 8:10pm

Mon Dec 5, 7:10pm

Mon Dec 5, 6:10pm

Mon Dec 5, 5:10pm

Mon Dec 5, 4:10pm

Mon Dec 5, 3:10pm

Mon Dec 5, 2:10pm

Mon Dec 5, 1:10pm

Mon Dec 5, 12:10pm

Mon Dec 5, 11:10am

Mon Dec 5, 10:10am

Mon Dec 5, 9:10am

Mon Dec 5, 8:10am

Mon Dec 5, 7:10am

Mon Dec 5, 6:10am

Mon Dec 5, 5:10am

Mon Dec 5, 4:10am

Mon Dec 5, 3:10am

Mon Dec 5, 2:10am

Mon Dec 5, 1:10am

Mon Dec 5, 12:10am

Sun Dec 4, 11:10pm

Sun Dec 4, 10:10pm

Sun Dec 4, 9:10pm

Sun Dec 4, 8:10pm

Sun Dec 4, 7:10pm

Sun Dec 4, 6:10pm

Sun Dec 4, 5:10pm

Sun Dec 4, 4:10pm

Sun Dec 4, 3:10pm

Sun Dec 4, 2:10pm

Sun Dec 4, 1:10pm

Sun Dec 4, 12:10pm

Sun Dec 4, 11:10am

Sun Dec 4, 10:10am

Sun Dec 4, 9:10am

Sun Dec 4, 8:10am

Sun Dec 4, 7:10am

Sun Dec 4, 6:10am

Sun Dec 4, 5:10am

Sun Dec 4, 4:10am

Sun Dec 4, 3:10am

Sun Dec 4, 1:10am

Sun Dec 4, 12:10am

Sat Dec 3, 11:10pm

Sat Dec 3, 10:10pm

Sat Dec 3, 9:10pm

Sat Dec 3, 8:10pm

Sat Dec 3, 7:10pm

Sat Dec 3, 6:10pm

Sat Dec 3, 5:10pm

Sat Dec 3, 4:10pm

Sat Dec 3, 3:10pm

Sat Dec 3, 2:10pm

Sat Dec 3, 1:10pm

Sat Dec 3, 12:10pm

Sat Dec 3, 11:10am

Sat Dec 3, 10:10am

Sat Dec 3, 9:10am

Sat Dec 3, 8:10am

Sat Dec 3, 7:10am

Sat Dec 3, 6:10am

Sat Dec 3, 5:10am

Sat Dec 3, 4:10am

Sat Dec 3, 3:10am

Sat Dec 3, 2:10am

Sat Dec 3, 1:10am

Sat Dec 3, 12:10am

Fri Dec 2, 11:10pm

Fri Dec 2, 10:10pm

Fri Dec 2, 9:10pm

Fri Dec 2, 8:10pm

Fri Dec 2, 7:10pm

Fri Dec 2, 6:10pm

Fri Dec 2, 5:10pm

Fri Dec 2, 4:10pm

Fri Dec 2, 3:10pm

Fri Dec 2, 2:10pm

Fri Dec 2, 1:10pm

Fri Dec 2, 12:10pm

Fri Dec 2, 11:10am

Fri Dec 2, 10:10am

Fri Dec 2, 9:10am

Fri Dec 2, 8:10am

Fri Dec 2, 7:10am

Fri Dec 2, 6:10am

Fri Dec 2, 5:10am

Fri Dec 2, 4:10am

Fri Dec 2, 3:10am

Fri Dec 2, 2:10am

Fri Dec 2, 1:10am

Fri Dec 2, 12:10am

Thu Dec 1, 11:10pm

Thu Dec 1, 10:10pm

Thu Dec 1, 9:10pm

Thu Dec 1, 8:10pm

Thu Dec 1, 7:10pm

Thu Dec 1, 6:10pm

Thu Dec 1, 5:10pm

Thu Dec 1, 4:10pm

Thu Dec 1, 3:10pm

Meta data:

ID: 6e2280f9-a16d-46c9-8c41-50125ce1bacf
Link: https://api.weather.gov/products/6e2280f9-a16d-46c9-8c41-50125ce1bacf